Location: Lac Echo
(45.9375°N, 75.4580°W)
Time: 12:53:51
(UTC-04:00)

Amateur Radio Satellites - All Passes

Search period start: 24 October 2014 12:23
Search period end: 25 October 2014 12:23
Location: Lac Echo, 45.9375°N, 75.4580°W

Satellite Date Start Highest point End Downlink Frequencies (MHz)
Time Altitude Azimuth
UKube-1 24 Oct 12:26:09 12:28:24 14° 301° (WNW) 12:30:38 145.840 MHz, 145.915 MHz
SO-50 24 Oct 12:30:58 12:33:55 17° 110° (ESE) 12:36:56 436.795 FM
Uribyol 2 24 Oct 12:33:49 12:35:58 13° 54° (NE) 12:38:08 436.500 FM
ITAMSAT 1 24 Oct 12:39:26 12:41:49 13° 55° (NE) 12:44:12 435.822 SSB
KITSAT 1 24 Oct 12:41:40 12:49:36 64° 117° (ESE) 12:57:33 435.175 FM
Gurwin Techsat 1B 24 Oct 12:57:48 12:58:37 10° 52° (NE) 12:59:27 435.225 FM
Sapphire 24 Oct 12:59:48 13:05:13 62° 54° (NE) 13:10:36 437.095 MHz 1200 baud AX-25 AFSK
FUNcube-1 24 Oct 13:05:10 13:06:55 12° 301° (WNW) 13:08:40 145.950 - 145.970 MHz USB
Oscar 19 24 Oct 13:05:25 13:10:18 45° 69° (ENE) 13:15:11 437.125 CW, 437.150 USB
ISS 24 Oct 13:12:16 13:15:12 29° 140° (SE) 13:18:09 145.800 FM
AO-27 24 Oct 13:22:20 13:26:48 30° 64° (ENE) 13:31:17 436.795 MHz FM
PCSat 24 Oct 13:22:26 13:27:54 85° 239° (WSW) 13:33:19 145.825 MHz
Oscar 10/S400 24 Oct 13:32:30 13:48:15 28° 150° (SSE) 14:06:32 145.825 - 145.975 CW/USB, Beacon 145.810 USB
AO-7 24 Oct 13:38:49 13:42:50 15° 39° (NE) 13:46:51 29.400 - 29.500 MHz
AO-Echo 24 Oct 13:50:08 13:54:56 58° 71° (ENE) 13:59:56 ?
Oscar 16 24 Oct 13:50:47 13:55:56 73° 257° (WSW) 14:01:07 437.025 USB, Beacon 2401.1428
UOSAT-12 24 Oct 13:58:34 14:00:36 13° 108° (ESE) 14:02:40 437.025 FM, 437.400 FM
Uribyol 2 24 Oct 14:09:21 14:14:34 76° 73° (ENE) 14:19:49 436.500 FM
SO-50 24 Oct 14:09:28 14:13:57 65° 309° (NW) 14:18:37 436.795 FM
JAS-1B 24 Oct 14:11:49 14:17:44 65° 257° (WSW) 14:23:23 435.800 - 435.900 CW/SSB
ITAMSAT 1 24 Oct 14:15:16 14:20:28 80° 74° (ENE) 14:25:44 435.822 SSB
Gurwin Techsat 1B 24 Oct 14:32:19 14:37:32 61° 71° (ENE) 14:42:47 435.225 FM
KITSAT 1 24 Oct 14:37:57 14:45:27 40° 320° (NW) 14:52:59 435.175 FM
TMSAT-1 24 Oct 14:43:53 14:49:05 58° 71° (ENE) 14:54:18 436.925 FM
Sapphire 24 Oct 14:44:05 14:48:11 22° 253° (WSW) 14:52:16 437.095 MHz 1200 baud AX-25 AFSK
Oscar 19 24 Oct 14:45:35 14:49:50 26° 266° (W) 14:54:05 437.125 CW, 437.150 USB
ISS 24 Oct 14:48:29 14:51:46 54° 338° (NNW) 14:55:03 145.800 FM
AO-27 24 Oct 15:01:15 15:06:09 41° 262° (W) 15:11:06 436.795 MHz FM
PCSat 24 Oct 15:08:02 15:10:28 13° 257° (WSW) 15:12:53 145.825 MHz
AO-7 24 Oct 15:25:52 15:33:45 52° 61° (ENE) 15:41:40 29.400 - 29.500 MHz
Saudisat 1A 24 Oct 15:26:16 15:30:04 27° 40° (NE) 15:33:50 436.775 MHz
AO-Echo 24 Oct 15:30:45 15:34:09 19° 270° (W) 15:37:39 ?
Uosat F 24 Oct 15:35:21 15:39:37 29° 64° (ENE) 15:43:55 435.120 FM
UOSAT-12 24 Oct 15:35:22 15:40:02 89° 306° (NW) 15:44:48 437.025 FM, 437.400 FM
Uribyol 2 24 Oct 15:51:35 15:54:37 16° 271° (W) 15:57:41 436.500 FM
SO-50 24 Oct 15:52:39 15:55:27 16° 331° (NNW) 15:58:18 436.795 FM
ITAMSAT 1 24 Oct 15:57:48 16:00:36 15° 272° (W) 16:03:25 435.822 SSB
Gurwin Techsat 1B 24 Oct 16:14:08 16:17:56 20° 269° (W) 16:21:44 435.225 FM
JAS-2 24 Oct 16:19:31 16:24:26 26° 57° (ENE) 16:29:49 435.800 - 435.900 CW/SSB, 435.910 FM
TMSAT-1 24 Oct 16:25:28 16:29:23 21° 269° (W) 16:33:19 436.925 FM
ISS 24 Oct 16:25:55 16:28:54 29° 358° (N) 16:31:54 145.800 FM
KITSAT 1 24 Oct 16:37:58 16:43:27 19° 348° (NNW) 16:48:56 435.175 FM
Hamsat 24 Oct 17:02:51 17:06:12 24° 66° (ENE) 17:09:33 145.90 MHz
Saudisat 1A 24 Oct 17:05:34 17:09:50 48° 240° (WSW) 17:14:05 436.775 MHz
Uosat F 24 Oct 17:13:33 17:18:15 40° 262° (W) 17:23:00 435.120 FM
OPAL 24 Oct 17:13:46 17:16:41 16° 92° (E) 17:19:35 ?
UOSAT-12 24 Oct 17:17:28 17:20:52 19° 327° (NNW) 17:24:18 437.025 FM, 437.400 FM
AO-7 24 Oct 17:19:01 17:26:42 41° 262° (W) 17:34:27 29.400 - 29.500 MHz
ISS 24 Oct 18:02:51 18:06:06 45° 19° (NNE) 18:09:20 145.800 FM
JAS-2 24 Oct 18:02:54 18:08:50 67° 259° (W) 18:15:38 435.800 - 435.900 CW/SSB, 435.910 FM
SO-67 24 Oct 18:30:24 18:33:10 23° 69° (ENE) 18:35:57 435.3500 MHz FM
HO-68 24 Oct 18:33:52 18:36:06 12° 42° (NE) 18:38:19 435.675 MHz FM
KITSAT 1 24 Oct 18:36:32 18:42:23 21° 18° (NNE) 18:48:12 435.175 FM
Hamsat 24 Oct 18:38:08 18:41:59 34° 263° (W) 18:45:51 145.90 MHz
OPAL 24 Oct 18:51:08 18:56:06 71° 290° (WNW) 19:01:00 ?
STRAND 1 24 Oct 18:56:52 19:00:44 21° 92° (E) 19:04:35 ?
SO-50 24 Oct 19:19:17 19:21:00 12° 22° (NNE) 19:22:43 436.795 FM
ISS 24 Oct 19:39:38 19:42:47 38° 217° (SW) 19:45:54 145.800 FM
JAS-2 24 Oct 19:54:34 19:55:30 10° 281° (W) 19:56:26 435.800 - 435.900 CW/SSB, 435.910 FM
SO-67 24 Oct 20:03:17 20:06:05 23° 265° (W) 20:08:53 435.3500 MHz FM
UKube-1 24 Oct 20:13:37 20:14:50 11° 57° (ENE) 20:16:03 145.840 MHz, 145.915 MHz
HO-68 24 Oct 20:15:20 20:22:07 48° 64° (ENE) 20:28:56 435.675 MHz FM
KITSAT 1 24 Oct 20:32:10 20:39:59 49° 45° (NE) 20:47:45 435.175 FM
OPAL 24 Oct 20:32:31 20:34:05 11° 309° (NW) 20:35:39 ?
STRAND 1 24 Oct 20:35:13 20:40:16 55° 290° (WNW) 20:45:16 ?
FUNcube-1 24 Oct 20:52:33 20:53:55 11° 58° (ENE) 20:55:16 145.950 - 145.970 MHz USB
Oscar 11 24 Oct 20:52:49 20:56:10 22° 65° (ENE) 20:59:32 145.825 FM, Beacon 2401.500 USB
SO-50 24 Oct 20:58:26 21:02:55 37° 44° (NE) 21:07:27 436.795 FM
AO-40 24 Oct 21:32:14 23:24:07 23° 217° (SW) 02:44:14 Beacon 2401.320
ZACube-1 24 Oct 21:40:52 21:44:54 31° 68° (ENE) 21:48:53 437.345 MHz
RS-15 24 Oct 21:41:17 21:50:52 37° 107° (ESE) 22:00:22 29.354 - 29.394 USB, Beacon 29.352 USB
UKube-1 24 Oct 21:45:57 21:50:18 86° 75° (ENE) 21:54:42 145.840 MHz, 145.915 MHz
HO-68 24 Oct 22:03:23 22:09:57 38° 263° (W) 22:16:34 435.675 MHz FM
UOSAT-12 24 Oct 22:23:08 22:27:13 28° 40° (NE) 22:31:15 437.025 FM, 437.400 FM
FUNcube-1 24 Oct 22:24:59 22:29:34 84° 75° (ENE) 22:34:07 145.950 - 145.970 MHz USB
KITSAT 1 24 Oct 22:27:46 22:35:25 48° 247° (WSW) 22:43:02 435.175 FM
Oscar 11 24 Oct 22:28:04 22:32:08 40° 262° (W) 22:36:13 145.825 FM, Beacon 2401.500 USB
SO-50 24 Oct 22:39:03 22:43:30 37° 243° (WSW) 22:47:59 436.795 FM
ZACube-1 24 Oct 23:17:13 23:21:16 30° 265° (W) 23:25:16 437.345 MHz
MaSat-1 24 Oct 23:19:11 23:22:02 18° 108° (ESE) 23:24:43 437.345 MHz
RS-15 24 Oct 23:51:28 00:02:25 72° 311° (NW) 00:13:25 29.354 - 29.394 USB, Beacon 29.352 USB
UOSAT-12 25 Oct 00:03:02 00:07:38 52° 240° (WSW) 00:12:09 437.025 FM, 437.400 FM
FUNcube-1 25 Oct 00:05:08 00:06:31 11° 272° (W) 00:07:53 145.950 - 145.970 MHz USB
MaSat-1 25 Oct 00:53:36 00:57:28 43° 302° (WNW) 01:00:58 437.345 MHz
Oscar 19 25 Oct 01:16:22 01:18:32 13° 87° (E) 01:20:41 437.125 CW, 437.150 USB
JAS-1B 25 Oct 01:51:21 01:57:10 30° 96° (E) 02:03:50 435.800 - 435.900 CW/SSB
AO-Echo 25 Oct 01:55:48 01:59:15 17° 89° (E) 02:02:41 ?
Oscar 16 25 Oct 02:00:17 02:04:54 33° 96° (E) 02:09:28 437.025 USB, Beacon 2401.1428
RS-15 25 Oct 02:07:30 02:17:03 33° 341° (NNW) 02:26:45 29.354 - 29.394 USB, Beacon 29.352 USB
Uribyol 2 25 Oct 02:20:25 02:24:26 22° 92° (E) 02:28:26 436.500 FM
ITAMSAT 1 25 Oct 02:26:22 02:30:32 24° 93° (E) 02:34:40 435.822 SSB
Gurwin Techsat 1B 25 Oct 02:46:52 02:50:46 20° 91° (E) 02:54:37 435.225 FM
Oscar 19 25 Oct 02:53:26 02:58:35 87° 285° (WNW) 03:03:42 437.125 CW, 437.150 USB
TMSAT-1 25 Oct 02:58:09 03:01:53 19° 90° (E) 03:05:36 436.925 FM
AO-27 25 Oct 03:11:22 03:16:34 59° 101° (ESE) 03:21:43 436.795 MHz FM
AO-7 25 Oct 03:28:03 03:30:27 11° 83° (E) 03:32:51 29.400 - 29.500 MHz
AO-Echo 25 Oct 03:33:13 03:38:31 71° 287° (WNW) 03:43:48 ?
Oscar 16 25 Oct 03:39:37 03:44:15 35° 294° (WNW) 03:48:52 437.025 USB, Beacon 2401.1428
JAS-1B 25 Oct 03:41:40 03:48:00 56° 291° (WNW) 03:55:31 435.800 - 435.900 CW/SSB
Sapphire 25 Oct 03:44:28 03:49:16 34° 111° (ESE) 03:54:06 437.095 MHz 1200 baud AX-25 AFSK
Uribyol 2 25 Oct 03:59:09 04:04:14 53° 290° (WNW) 04:09:15 436.500 FM
ITAMSAT 1 25 Oct 04:05:14 04:10:18 50° 291° (WNW) 04:15:18 435.822 SSB
PCSat 25 Oct 04:06:25 04:11:40 54° 116° (ESE) 04:16:58 145.825 MHz
RS-15 25 Oct 04:24:07 04:33:37 32° 16° (NNE) 04:43:21 29.354 - 29.394 USB, Beacon 29.352 USB
Gurwin Techsat 1B 25 Oct 04:25:53 04:31:08 60° 289° (WNW) 04:36:20 435.225 FM
OPAL 25 Oct 04:30:08 04:34:53 39° 65° (ENE) 04:39:35 ?
Oscar 19 25 Oct 04:34:37 04:37:10 14° 304° (NW) 04:39:43 437.125 CW, 437.150 USB
TMSAT-1 25 Oct 04:37:00 04:42:15 63° 288° (WNW) 04:47:28 436.925 FM
AO-27 25 Oct 04:51:44 04:55:40 22° 300° (WNW) 04:59:34 436.795 MHz FM
JAS-2 25 Oct 05:09:39 05:15:21 22° 87° (E) 05:21:02 435.800 - 435.900 CW/SSB, 435.910 FM
AO-Echo 25 Oct 05:14:22 05:16:21 12° 306° (NW) 05:18:20 ?
AO-7 25 Oct 05:16:45 05:24:59 61° 104° (ESE) 05:33:12 29.400 - 29.500 MHz
Uosat F 25 Oct 05:18:21 05:23:18 52° 100° (E) 05:28:12 435.120 FM
Sapphire 25 Oct 05:27:26 05:32:35 43° 311° (NW) 05:37:46 437.095 MHz 1200 baud AX-25 AFSK
JAS-1B 25 Oct 05:35:34 05:37:33 12° 310° (NW) 05:39:37 435.800 - 435.900 CW/SSB
PCSat 25 Oct 05:50:39 05:55:23 30° 316° (NW) 06:00:08 145.825 MHz
OPAL 25 Oct 06:09:20 06:13:50 30° 262° (W) 06:18:18 ?
Gurwin Techsat 1B 25 Oct 06:09:43 06:10:01 10° 308° (NW) 06:10:19 435.225 FM
STRAND 1 25 Oct 06:14:54 06:19:38 39° 67° (ENE) 06:24:24 ?
TMSAT-1 25 Oct 06:20:03 06:21:08 11° 308° (NW) 06:22:13 436.925 FM
Hamsat 25 Oct 06:20:59 06:24:47 32° 96° (E) 06:28:35 145.90 MHz
RS-15 25 Oct 06:37:31 06:48:35 65° 46° (NE) 07:00:04 29.354 - 29.394 USB, Beacon 29.352 USB
JAS-2 25 Oct 06:53:24 07:01:11 88° 286° (WNW) 07:09:02 435.800 - 435.900 CW/SSB, 435.910 FM
Uosat F 25 Oct 06:57:49 07:01:45 23° 298° (WNW) 07:05:40 435.120 FM
AO-7 25 Oct 07:10:02 07:17:24 37° 304° (NW) 07:24:47 29.400 - 29.500 MHz
Saudisat 1A 25 Oct 07:14:41 07:18:11 24° 114° (ESE) 07:21:43 436.775 MHz
Sapphire 25 Oct 07:15:11 07:17:30 13° 334° (NNW) 07:19:50 437.095 MHz 1200 baud AX-25 AFSK
SO-67 25 Oct 07:23:57 07:26:31 19° 93° (E) 07:29:04 435.3500 MHz FM
STRAND 1 25 Oct 07:54:26 07:58:54 30° 265° (W) 08:03:24 ?
Hamsat 25 Oct 07:57:11 08:00:37 25° 293° (WNW) 08:04:03 145.90 MHz
JAS-2 25 Oct 08:39:33 08:45:16 24° 305° (NW) 08:51:06 435.800 - 435.900 CW/SSB, 435.910 FM
RS-15 25 Oct 08:50:20 09:00:32 44° 250° (WSW) 09:11:10 29.354 - 29.394 USB, Beacon 29.352 USB
Saudisat 1A 25 Oct 08:53:16 08:57:30 46° 313° (NW) 09:01:47 436.775 MHz
SO-67 25 Oct 08:56:32 08:59:31 27° 290° (WNW) 09:02:29 435.3500 MHz FM
MaSat-1 25 Oct 09:01:46 09:04:24 47° 58° (ENE) 09:06:48 437.345 MHz
AO-7 25 Oct 09:06:26 09:07:48 11° 328° (NNW) 09:09:09 29.400 - 29.500 MHz
HO-68 25 Oct 09:27:39 09:34:18 39° 97° (E) 09:40:54 435.675 MHz FM
UKube-1 25 Oct 09:33:38 09:35:27 12° 89° (E) 09:37:15 145.840 MHz, 145.915 MHz
Oscar 11 25 Oct 10:13:10 10:16:58 30° 96° (E) 10:20:45 145.825 FM, Beacon 2401.500 USB
FUNcube-1 25 Oct 10:13:35 10:15:34 13° 89° (E) 10:17:31 145.950 - 145.970 MHz USB
Saudisat 1A 25 Oct 10:36:25 10:38:10 12° 334° (NNW) 10:39:56 436.775 MHz
Sapphire 25 Oct 10:47:13 10:49:53 14° 28° (NNE) 10:52:32 437.095 MHz 1200 baud AX-25 AFSK
ZACube-1 25 Oct 11:03:35 11:07:41 43° 98° (E) 11:11:41 437.345 MHz
KITSAT 1 25 Oct 11:05:53 11:11:21 20° 102° (ESE) 11:16:48 435.175 FM
UKube-1 25 Oct 11:07:46 11:12:08 72° 287° (WNW) 11:16:28 145.840 MHz, 145.915 MHz
PCSat 25 Oct 11:09:16 11:12:56 18° 34° (NE) 11:16:35 145.825 MHz
HO-68 25 Oct 11:15:18 11:22:07 48° 296° (WNW) 11:28:55 435.675 MHz FM
FUNcube-1 25 Oct 11:48:11 11:52:25 63° 287° (WNW) 11:56:33 145.950 - 145.970 MHz USB
Oscar 11 25 Oct 11:49:24 11:53:06 28° 293° (WNW) 11:56:47 145.825 FM, Beacon 2401.500 USB
